Вернуться в каталог

TJS-2

АктивенСвязьGEO
NORAD 41911·PAYLOAD·🇨🇳 China

Запущен Jan 5, 2017 с Xichang Satellite Launch Center

Loading…

TLE

СвежийSource: Space-Track

Эпоха: Sep 14, 2026, 14:07 UTC

1 41911U 17001A   26257.58836106 -.00000014  00000-0  00000-0 0  9990
2 41911   1.0576  83.9361 0001528 150.5985  37.4028  1.00271226 35616

Отслеживайте TJS-2 в реальном времени с AllMySat

Download on the App Store